AETHER-11

导读

AETHER-11卫星于2026年1月11日由加拿大发射升空,该卫星所属项目聚焦太空太阳能传输技术创新。作为Aetherflux公司星座计划的组成部分,它采用红外激光技术实现空间太阳能向地面的无线传输,旨在为偏远地区、灾害现场及军事应用提供清洁电力。卫星入轨后将开展关键技术验证,推动太空太阳能商业化进程,为后续星座组网奠定基础。

基本信息
目录编号:
67382
目录名称:
AETHER-11
国际标识:
2026-004V
轨道中心:
EARTH
卫星名称:
AETHER-11
卫星全名:
AETHER-11
卫星状态:
在轨 (已飞行155 天)
发射日期:
2026-01-11 UTC
国别 :
加拿大 (CA)
星等 :
--
轨道信息
数据来源 国际轨道数据
星历时间: 2026-06-15T05:04:37+0800
6小时前
查看轨道信息
半长轴: 6987.863km
偏心率: 0.0000879
轨道倾角: 97.803°
近地点辐角 133.928°
升交点赤经 164.579°
平近点角 226.201°
近地点: 609.111km
远地点: 610.341km
周期: 96.889分钟
每日圈数: 14.862308
详细信息
使用方式:
暂无
2D轨道图
3D轨道图
轨道高度分析图
轨道倾角分析图
轨道综合分析图
查看轨道综合分析图